Location: Basse Occidentale du Courleau
(48.3833°N, 4.8333°W)
Time: 19:31:47
(UTC+00:00)

APEX - Pass Details

Date: 05 July 2020
Orbit: 333 x 1108 km, 69.9° (Epoch: 06 August)

Event Time Altitude Azimuth Distance (km) Brightness Sun altitude
Rises 23:38:05 0° 338° (NNW) 2,153 7.9 -18.2°
Reaches altitude 10° 23:40:12 10° 350° (N) 1,284 6.5 -18.3°
Maximum altitude 23:42:40 30° 54° (NE) 641 3.9 -18.3°
Enters shadow 23:43:08 28° 76° (ENE) 675 3.8 -18.4°
